Location: Dötzum
(52.0808°N, 9.8063°E)
Time: 06:04:20
(UTC+00:00)

USA 307 - Pass Details

Date: 27 May 2022
Orbit: 552 x 554 km, 54.0° (Epoch: 17 June)

Event Time Altitude Azimuth Distance (km) Brightness Sun altitude
Exits shadow 00:08:03 30° 176° (S) 1,012 3.6 -15.8°
Maximum altitude 00:09:07 35° 144° (SE) 908 3.6 -15.8°
Drops below altitude 10° 00:12:56 10° 78° (ENE) 1,844 5.8 -15.7°
Sets 00:15:18 0° 70° (ENE) 2,743 6.9 -15.6°
